Weather History for Pellston, MI

Change the Weather History Date:

Monday, October 8, 2012

  Actual Average Record
Temperature  
Mean Temperature 46 °F -  
Max Temperature 57 °F 57 °F 87 °F (2007)
Min Temperature 37 °F 38 °F 17 °F (2001)
Degree Days  
Heating Degree Days 19    
Moisture  
Dew Point 30 °F    
Average Humidity 53    
Maximum Humidity 76    
Minimum Humidity 37    
Precipitation  
Precipitation 0.00 in - - ()
Sea Level Pressure  
Sea Level Pressure 30.01 in    
Wind  
Wind Speed 9 mph (SSW)    
Max Wind Speed 20 mph    
Max Gust Speed 29 mph    
Visibility 10 miles    
Events Rain    
Averages and records for this station are not official NWS values.
T = Trace of Precipitation, MM = Missing Value Source: NWS Daily Summary

Daily Weather History Graph

Daily Weather History Graph

Search for Another Location

Airport:

Trip Planner

Search our weather history database for the weather conditions in past years. The results will help you decide how hot, cold, wet, or windy it might be!

Date:

Astronomy

Oct. 08, 2012 Rise Set
Actual Time 7:47 AM EDT 7:05 PM EDT
Civil Twilight 7:17 AM EDT 7:34 PM EDT
Nautical Twilight 6:42 AM EDT 8:09 PM EDT
Astronomical Twilight 6:08 AM EDT 8:43 PM EDT
Moon 12:06 AM EDT (10/8) 3:12 PM EDT (10/8)
Length of Visible Light 12h 17m
Length of Day
11h 18m
Waning Gibbous, 46% of the Moon is Illuminated
Oct 8
Waning Gibbous
Oct 15
New
Oct 21
First Quarter
Oct 29
Full
Nov 6
Last Quarter

Hourly Weather History & Observations

Time (EDT) Temp. Windchill Dew Point Humidity Pressure Visibility Wind Dir Wind Speed Gust Speed Precip Events Conditions
12:54 AM 39.0 °F 33.4 °F 32.0 °F 76% 30.04 in 10.0 mi South 8.1 mph - N/A   Overcast
1:54 AM 39.9 °F 33.4 °F 30.9 °F 70% 30.03 in 10.0 mi South 10.4 mph - N/A   Mostly Cloudy
2:54 AM 39.9 °F 35.8 °F 30.9 °F 70% 30.04 in 10.0 mi SSW 5.8 mph - N/A   Overcast
3:54 AM 41.0 °F 36.4 °F 32.0 °F 70% 30.03 in 10.0 mi SSW 6.9 mph - N/A   Overcast
4:54 AM 41.0 °F 36.4 °F 30.9 °F 67% 30.03 in 10.0 mi South 6.9 mph - N/A   Overcast
5:54 AM 41.0 °F 36.4 °F 30.0 °F 65% 30.04 in 10.0 mi SSW 6.9 mph - N/A   Overcast
6:54 AM 39.0 °F 35.7 °F 28.9 °F 67% 30.05 in 10.0 mi South 4.6 mph - N/A   Overcast
7:54 AM 37.0 °F 32.4 °F 28.0 °F 70% 30.05 in 10.0 mi South 5.8 mph - N/A   Clear
8:54 AM 39.9 °F 35.1 °F 28.0 °F 63% 30.06 in 10.0 mi South 6.9 mph - N/A   Clear
9:54 AM 45.0 °F 40.1 °F 28.0 °F 52% 30.06 in 10.0 mi SSW 9.2 mph - N/A   Clear
10:54 AM 48.9 °F - 28.9 °F 46% 30.05 in 10.0 mi SSW 9.2 mph - N/A   Clear
11:54 AM 52.0 °F - 30.0 °F 43% 30.04 in 10.0 mi SSW 15.0 mph 21.9 mph N/A   Clear
12:54 PM 54.0 °F - 30.0 °F 40% 30.03 in 10.0 mi SSW 19.6 mph 26.5 mph N/A   Clear
1:54 PM 55.0 °F - 28.9 °F 37% 30.01 in 10.0 mi SSW 15.0 mph 24.2 mph N/A   Partly Cloudy
2:54 PM 55.0 °F - 30.0 °F 38% 30.00 in 10.0 mi SSW 12.7 mph 24.2 mph N/A   Scattered Clouds
3:54 PM 54.0 °F - 30.0 °F 40% 29.98 in 10.0 mi South 15.0 mph 24.2 mph N/A   Scattered Clouds
4:54 PM 54.0 °F - 30.0 °F 40% 29.96 in 10.0 mi SSW 12.7 mph 26.5 mph N/A   Overcast
5:54 PM 54.0 °F - 30.9 °F 41% 29.95 in 10.0 mi South 8.1 mph 17.3 mph N/A   Overcast
7:54 PM 52.0 °F - 30.9 °F 45% 29.96 in 10.0 mi South 10.4 mph 18.4 mph N/A   Mostly Cloudy
8:54 PM 51.1 °F - 32.0 °F 48% 29.96 in 10.0 mi South 8.1 mph - N/A   Overcast
9:54 PM 51.1 °F - 30.9 °F 46% 29.95 in 10.0 mi South 9.2 mph 19.6 mph N/A   Overcast
10:54 PM 50.0 °F - 30.9 °F 48% 29.95 in 10.0 mi South 12.7 mph 28.8 mph 0.00 in Rain Light Rain
11:54 PM 51.1 °F - 30.0 °F 44% 29.94 in 10.0 mi South 12.7 mph 20.7 mph 0.00 in   Overcast